Wind_Speed
12 11 8 6 4 5 9 12 15 17 19 22 24 26 28 29 28 30 32 32 27 22 18 15 14 15 17 18 20 21 22 21 22 22 20 20 23 26 28 29 29 28 26 28 28
15 14 11 8 6 6 9 11 14 15 18 23 27 27 26 28 28 29 32 33 30 26 23 21 18 17 18 20 20 21 22 21 21 22 23 24 25 28 30 31 29 29 29 29 28
17 16 14 10 8 8 9 11 12 13 18 22 27 27 26 28 27 30 32 33 31 28 24 24 23 23 22 21 22 23 24 24 25 25 26 27 28 30 31 34 34 31 30 30 31
18 19 17 14 11 9 9 10 9 12 16 21 25 27 26 27 28 29 30 32 32 32 30 27 26 25 24 21 23 23 24 25 26 27 28 30 31 31 35 35 33 31 31 32 32
20 21 20 17 14 12 11 10 10 11 15 18 23 25 27 27 27 27 27 29 31 32 32 30 28 27 27 27 24 25 25 25 27 27 30 31 33 36 33 33 34 33 33 37 35
23 24 23 20 18 15 14 13 11 12 14 17 21 24 27 26 27 26 27 27 28 29 30 30 28 27 26 28 29 27 24 24 24 26 29 30 30 33 34 36 34 33 35 37 39
27 27 26 23 21 19 17 15 15 14 14 16 20 23 26 25 27 27 27 26 26 27 29 30 29 27 25 26 27 27 27 26 26 26 26 27 29 33 37 36 34 33 34 39 39
31 30 29 27 24 23 21 20 18 17 16 16 19 22 24 26 26 27 27 28 27 27 29 30 31 30 27 27 28 28 28 27 25 25 26 27 30 36 40 40 37 39 40 43 44
34 33 31 30 28 26 25 24 22 20 19 18 20 22 23 27 27 28 28 28 29 28 30 31 31 31 32 30 30 30 30 31 32 31 31 32 32 38 45 44 45 45 45 47 51
37 36 35 33 32 30 29 28 26 24 23 23 22 24 25 27 27 30 29 31 30 31 31 32 31 31 31 33 34 34 34 33 34 36 36 38 39 41 47 49 49 50 51 51 53
40 40 38 37 36 34 31 31 30 29 26 27 25 25 28 28 29 31 30 34 32 33 33 33 33 32 31 35 38 39 37 38 34 37 39 42 44 45 48 51 49 53 56 56 56
42 42 41 41 40 38 35 34 34 34 27 30 29 30 31 31 32 33 34 37 35 35 35 34 36 34 35 40 41 42 43 42 42 44 44 46 47 48 48 50 53 54 54 53 56
43 44 45 45 43 42 39 38 38 39 37 28 30 32 33 34 34 35 37 38 36 38 39 37 39 39 40 42 45 42 47 46 48 49 48 50 51 49 49 52 52 52 56 56 60
45 45 46 47 46 45 44 42 42 43 45 35 34 34 35 38 38 39 40 41 39 40 42 43 41 40 42 43 46 46 49 50 49 52 56 52 57 53 53 55 55 60 59 62 64
47 48 49 50 49 48 48 46 46 47 51 41 38 39 39 43 42 41 42 43 39 42 44 44 47 46 47 46 46 49 52 53 55 54 55 50 56 54 54 56 54 56 61 62 62
52 51 52 52 52 53 52 52 51 53 53 48 46 44 45 47 46 46 46 44 41 43 42 45 48 48 50 50 52 54 53 55 57 57 59 57 58 56 58 61 60 64 64 63 66
56 56 55 55 54 55 55 57 58 59 52 52 50 50 50 50 50 48 49 45 43 49 45 47 49 49 53 54 56 57 58 62 63 64 63 63 65 61 63 63 64 65 65 67 65
60 59 59 58 58 58 60 63 66 61 53 53 54 54 54 53 54 51 50 46 42 45 50 52 53 52 55 56 59 59 58 63 70 65 62 62 64 65 64 64 66 67 68 69 67
65 63 61 61 61 61 64 70 67 62 56 55 57 60 59 55 53 55 51 50 47 46 48 53 55 57 57 58 59 60 62 65 70 64 63 65 65 68 69 70 66 66 70 69 69
68 69 66 64 64 65 71 73 68 60 59 61 62 63 62 56 54 55 55 55 52 51 51 54 57 58 58 59 58 60 65 69 75 70 69 66 68 75 70 68 64 68 69 68 69
70 71 69 67 69 73 77 74 69 65 63 65 66 66 60 53 53 56 58 57 55 54 57 58 59 60 62 62 64 65 68 72 73 73 72 77 75 71 70 65 68 70 69 67 64
78 78 74 70 72 78 79 74 72 69 67 67 68 63 57 56 57 56 58 59 59 59 61 61 63 65 65 68 67 71 71 72 70 68 73 73 77 70 64 63 69 69 68 64 63
77 77 81 82 82 78 77 75 72 73 67 66 65 63 59 60 62 59 61 59 59 61 63 62 66 68 67 71 73 71 66 67 68 70 72 72 74 66 63 65 66 65 64 65 67
81 82 84 83 80 82 80 78 79 75 73 71 70 68 68 63 62 66 64 62 62 65 64 63 66 65 70 73 75 73 69 69 67 70 62 71 64 64 58 60 63 64 65 67 68
84 86 86 87 84 80 80 78 78 81 80 76 71 72 69 68 68 67 64 66 69 67 66 67 72 75 74 72 73 69 72 70 69 62 66 65 63 51 53 61 65 67 67 66 66
97 93 90 87 85 84 83 84 85 83 78 76 79 72 69 74 70 67 67 69 67 70 71 72 74 79 71 73 69 71 71 63 65 68 64 60 57 48 57 62 64 66 66 67 64
82 87 98 93 89 89 86 86 84 78 82 79 74 72 73 71 69 70 71 72 69 71 74 74 78 82 74 73 67 73 65 65 65 57 46 51 53 54 58 58 65 66 66 64 60
Wind_Direction
229 240 234 243 281 331 341 347 354 0 359 358 359 2 6 8 13 20 24 22 13 6 357 347 333 318 307 298 296 297 297 298 298 300 302 304 309 307 317 322 322 325 322 314 318
228 240 242 248 273 308 324 338 347 353 355 355 354 358 4 7 11 16 19 20 17 7 359 353 346 332 321 313 309 305 303 300 297 298 303 305 306 304 314 316 321 323 315 312 311
232 235 242 246 262 283 308 326 336 343 348 351 349 352 358 2 1 7 16 18 14 10 3 352 348 343 337 326 317 312 306 306 305 305 305 303 303 305 310 316 319 321 314 313 311
235 234 238 243 252 269 288 309 324 334 340 348 349 350 352 357 360 5 10 11 9 5 358 349 343 341 339 333 323 317 311 309 307 307 303 302 305 307 308 314 317 316 313 311 307
234 235 238 242 246 255 273 289 305 321 332 342 345 347 349 352 355 358 2 4 4 1 356 347 339 337 338 335 335 328 321 318 311 306 301 302 303 306 312 312 313 315 314 309 305
234 236 240 246 250 252 262 276 287 305 319 332 340 344 344 347 350 351 352 356 357 356 353 349 343 336 335 334 334 335 333 324 318 310 307 306 308 310 309 310 315 313 309 303 303
232 236 241 245 252 256 261 266 278 290 303 319 332 336 338 340 343 347 345 344 347 349 347 342 342 339 335 332 331 332 333 327 319 315 310 308 307 306 307 310 309 307 307 305 302
235 238 241 245 249 255 260 264 269 278 290 304 318 326 328 332 334 339 338 338 336 338 340 340 337 337 337 335 331 330 329 324 313 307 304 303 308 306 303 309 311 317 314 310 309
240 242 245 248 251 254 259 263 266 271 281 292 305 315 319 324 326 329 334 332 329 328 333 339 333 331 333 335 330 329 333 330 325 310 305 303 309 308 309 314 317 319 320 320 320
246 246 248 249 252 254 257 262 266 271 277 285 298 306 312 315 318 322 326 326 324 324 325 332 332 329 330 332 334 334 333 331 326 319 315 311 312 310 308 313 318 320 323 318 320
249 251 253 255 256 257 259 262 265 268 275 281 291 298 303 308 312 316 317 319 319 320 321 323 327 326 325 329 334 334 329 326 327 317 311 308 306 308 310 316 317 320 320 320 321
251 252 256 261 265 265 263 264 267 269 265 277 288 297 301 304 306 308 309 314 315 316 316 319 317 319 321 324 328 330 325 323 323 314 312 310 311 311 317 313 316 317 315 320 321
254 256 258 264 270 271 269 268 270 272 273 269 281 289 293 295 297 303 306 308 312 314 313 317 315 316 316 317 318 319 321 320 317 313 313 314 311 311 318 317 318 317 317 320 323
257 259 262 266 270 273 273 273 273 275 275 277 278 283 287 292 297 300 303 305 309 309 309 314 313 313 312 314 316 316 319 317 316 315 316 320 311 311 314 316 320 321 319 318 317
256 260 261 264 269 272 274 276 276 277 278 283 285 288 289 291 295 298 299 302 305 304 309 313 313 314 314 314 314 313 317 317 314 313 312 321 312 314 319 318 323 322 320 317 317
254 256 260 264 267 270 274 275 276 274 276 282 286 288 289 291 295 298 298 301 301 302 306 307 309 312 311 312 314 313 314 316 311 312 311 317 314 314 317 323 322 319 318 317 317
258 259 259 262 264 267 269 270 270 269 278 282 286 287 287 290 293 295 297 298 301 302 305 304 305 309 308 310 313 314 316 318 314 315 313 311 310 316 316 325 321 318 317 316 317
257 258 260 262 264 266 267 268 268 273 276 280 283 283 285 289 292 294 293 295 296 299 301 302 302 304 307 310 312 316 316 318 317 312 307 308 309 313 318 323 320 317 316 317 318
257 257 258 261 262 264 265 265 269 272 277 278 278 280 284 288 289 291 291 292 295 295 298 298 299 301 306 308 311 312 313 316 317 309 306 308 314 314 318 319 318 313 314 316 315
259 258 257 260 261 263 264 266 270 272 276 277 277 281 284 288 291 290 290 294 296 298 298 295 295 298 300 305 308 310 308 313 316 309 308 307 311 312 319 317 314 312 312 312 311
258 259 258 259 261 261 262 266 268 271 274 275 277 280 283 287 287 287 289 294 296 297 294 294 295 297 299 304 307 312 309 311 310 307 309 307 310 317 315 316 310 309 310 312 312
257 258 261 261 260 261 263 267 269 271 272 275 276 279 284 284 283 285 289 291 294 293 293 294 297 297 299 303 305 306 307 308 306 308 303 309 304 316 312 311 307 305 309 312 308
257 261 259 259 259 260 263 266 268 269 274 275 274 279 279 279 282 285 284 287 289 289 289 293 295 296 300 299 303 305 308 305 304 305 303 304 305 308 309 306 302 307 310 307 302
256 257 259 261 265 264 265 268 269 270 270 272 276 277 278 282 283 283 284 287 285 283 286 288 289 291 294 296 294 297 301 301 300 297 308 299 306 306 309 302 304 308 304 301 301
255 259 260 261 263 267 265 267 267 267 270 273 274 276 281 281 280 281 285 283 281 283 286 287 291 290 292 297 298 298 296 299 298 302 300 305 300 316 301 303 304 302 301 301 303
259 258 260 261 262 265 266 267 266 269 272 273 273 276 277 276 278 280 278 278 281 284 286 288 292 290 293 299 296 296 295 302 300 303 302 301 306 302 303 301 301 298 298 300 302
263 268 261 261 262 265 270 269 269 268 268 272 276 274 275 276 277 275 276 279 281 282 285 287 287 290 295 297 295 288 300 301 301 304 299 303 313 305 302 302 295 295 298 299 301
Height
5903 5903 5903 5903 5903 5903 5903 5902 5900 5899 5897 5895 5893 5891 5887 5885 5882 5879 5876 5873 5870 5868 5866 5865 5863 5861 5859 5858 5857 5855 5855 5853 5850 5849 5848 5846 5844 5840 5839 5838 5838 5837 5833 5830 5829
5900 5901 5902 5902 5902 5902 5901 5900 5898 5897 5896 5894 5891 5889 5887 5884 5881 5877 5874 5870 5869 5867 5865 5863 5861 5860 5857 5854 5853 5851 5849 5848 5847 5844 5842 5840 5839 5834 5834 5832 5833 5832 5828 5826 5823
5898 5898 5899 5899 5900 5900 5899 5898 5897 5895 5893 5891 5889 5888 5886 5882 5880 5875 5872 5869 5868 5866 5864 5862 5859 5856 5854 5851 5848 5846 5844 5842 5840 5838 5836 5834 5831 5829 5827 5826 5825 5825 5821 5819 5816
5894 5895 5895 5896 5897 5897 5896 5896 5895 5893 5892 5890 5888 5886 5884 5881 5878 5873 5870 5867 5865 5863 5861 5859 5857 5854 5851 5848 5844 5842 5840 5838 5835 5833 5830 5829 5826 5824 5822 5821 5819 5817 5814 5811 5808
5890 5891 5892 5892 5892 5893 5893 5892 5891 5890 5889 5887 5886 5884 5881 5879 5876 5872 5869 5867 5864 5862 5859 5856 5853 5851 5847 5842 5840 5837 5835 5833 5830 5828 5825 5822 5820 5816 5816 5814 5813 5810 5807 5803 5799
5885 5886 5887 5888 5888 5888 5888 5887 5887 5886 5886 5883 5882 5881 5878 5877 5873 5870 5867 5865 5863 5860 5857 5853 5850 5847 5844 5839 5835 5832 5831 5828 5825 5821 5819 5816 5813 5810 5809 5806 5804 5802 5798 5792 5788
5879 5880 5881 5882 5883 5883 5883 5882 5882 5882 5881 5880 5878 5877 5875 5874 5870 5867 5864 5861 5859 5857 5855 5850 5846 5843 5840 5837 5832 5828 5826 5822 5819 5816 5813 5810 5808 5803 5797 5796 5795 5794 5789 5784 5781
5873 5874 5875 5876 5876 5877 5877 5877 5877 5876 5876 5876 5875 5874 5871 5868 5866 5864 5861 5858 5855 5853 5851 5847 5843 5839 5836 5832 5829 5825 5821 5817 5814 5811 5808 5806 5802 5797 5791 5790 5786 5783 5780 5777 5773
5867 5868 5869 5870 5870 5871 5871 5871 5870 5870 5870 5870 5870 5869 5867 5864 5862 5859 5858 5855 5851 5849 5846 5844 5839 5835 5830 5828 5824 5820 5816 5811 5806 5802 5800 5796 5795 5789 5780 5780 5779 5775 5771 5765 5760
5861 5862 5863 5863 5863 5864 5864 5864 5863 5863 5864 5863 5864 5865 5862 5860 5857 5853 5852 5850 5846 5843 5842 5838 5834 5829 5826 5821 5818 5815 5810 5806 5801 5795 5791 5786 5784 5779 5771 5767 5765 5761 5758 5752 5747
5854 5855 5856 5856 5856 5857 5857 5857 5858 5857 5856 5856 5857 5857 5855 5854 5851 5848 5845 5843 5840 5837 5833 5831 5828 5823 5819 5814 5809 5805 5803 5798 5797 5790 5784 5779 5776 5771 5766 5760 5755 5751 5746 5741 5737
5846 5848 5849 5849 5850 5849 5850 5849 5848 5848 5852 5848 5849 5849 5847 5846 5844 5842 5839 5837 5834 5830 5827 5825 5820 5817 5812 5806 5802 5798 5793 5790 5787 5780 5776 5770 5766 5760 5758 5751 5747 5742 5736 5730 5722
5838 5840 5841 5842 5842 5843 5841 5841 5839 5838 5839 5848 5845 5843 5842 5839 5837 5835 5832 5828 5825 5822 5819 5818 5813 5808 5804 5799 5794 5792 5785 5781 5776 5769 5766 5761 5753 5751 5749 5741 5735 5729 5721 5713 5706
5828 5830 5832 5833 5835 5834 5833 5832 5831 5829 5826 5837 5838 5838 5835 5831 5830 5827 5823 5821 5817 5812 5810 5808 5804 5801 5797 5792 5786 5781 5778 5773 5767 5758 5749 5750 5737 5738 5735 5727 5722 5716 5708 5701 5695
5817 5820 5822 5822 5824 5824 5824 5823 5822 5820 5814 5825 5826 5826 5824 5823 5820 5819 5815 5811 5808 5803 5800 5799 5791 5788 5785 5782 5777 5772 5767 5759 5753 5747 5739 5739 5726 5725 5722 5713 5707 5699 5692 5686 5679
5806 5808 5809 5812 5813 5813 5813 5812 5812 5809 5806 5812 5815 5814 5812 5810 5808 5806 5804 5802 5799 5794 5793 5788 5782 5779 5773 5770 5767 5761 5757 5751 5741 5734 5725 5722 5713 5713 5705 5700 5692 5684 5676 5670 5662
5795 5797 5798 5800 5802 5801 5800 5798 5798 5794 5803 5802 5804 5801 5799 5799 5797 5795 5793 5791 5788 5780 5781 5778 5772 5769 5763 5759 5754 5750 5744 5735 5727 5721 5712 5706 5698 5698 5692 5687 5680 5670 5663 5655 5648
5782 5784 5785 5788 5789 5789 5787 5783 5779 5787 5794 5793 5790 5788 5787 5788 5785 5783 5779 5779 5780 5774 5767 5761 5758 5757 5753 5749 5742 5737 5732 5727 5712 5708 5702 5696 5689 5685 5681 5675 5664 5654 5645 5640 5633
5767 5770 5772 5773 5774 5775 5772 5763 5770 5776 5782 5782 5779 5774 5774 5776 5775 5769 5769 5766 5766 5765 5762 5751 5748 5742 5740 5736 5732 5725 5721 5715 5701 5692 5686 5683 5676 5666 5666 5658 5650 5640 5631 5625 5617
5752 5754 5759 5758 5758 5758 5752 5751 5756 5768 5767 5765 5763 5763 5761 5764 5762 5756 5753 5752 5751 5750 5746 5740 5734 5733 5729 5725 5721 5717 5709 5703 5693 5677 5671 5669 5664 5652 5653 5644 5637 5627 5619 5612 5604
5735 5736 5744 5746 5742 5738 5732 5738 5746 5751 5754 5751 5749 5748 5751 5753 5749 5743 5740 5740 5739 5736 5730 5724 5722 5721 5715 5712 5707 5704 5695 5690 5680 5668 5658 5645 5651 5647 5637 5629 5620 5612 5607 5601 5593
5720 5719 5725 5728 5728 5718 5719 5729 5732 5734 5738 5735 5732 5735 5739 5738 5733 5732 5730 5725 5724 5721 5715 5709 5706 5701 5699 5696 5694 5689 5683 5677 5665 5659 5645 5641 5625 5632 5622 5616 5605 5597 5593 5587 5579
5699 5704 5703 5702 5701 5708 5711 5714 5716 5715 5719 5719 5720 5723 5724 5721 5718 5720 5715 5717 5714 5709 5700 5698 5691 5684 5687 5682 5680 5673 5668 5659 5652 5646 5637 5625 5617 5614 5609 5598 5590 5584 5578 5571 5561
5680 5681 5680 5679 5684 5692 5699 5702 5700 5703 5700 5701 5705 5706 5705 5709 5706 5700 5701 5701 5698 5692 5689 5685 5682 5677 5673 5672 5666 5663 5655 5647 5641 5627 5625 5610 5608 5600 5595 5582 5575 5570 5563 5554 5544
5660 5660 5661 5661 5667 5675 5679 5684 5681 5681 5684 5688 5690 5690 5693 5689 5688 5685 5686 5682 5677 5676 5672 5667 5666 5660 5660 5653 5647 5644 5635 5632 5623 5617 5602 5605 5587 5597 5578 5570 5561 5552 5546 5538 5530
5638 5644 5642 5648 5649 5651 5658 5659 5661 5663 5672 5673 5669 5676 5677 5670 5671 5670 5665 5662 5662 5660 5655 5650 5645 5639 5641 5635 5629 5624 5618 5620 5608 5599 5586 5581 5584 5573 5569 5556 5549 5540 5533 5525 5516
5621 5623 5622 5632 5632 5630 5635 5641 5644 5651 5649 5650 5654 5653 5653 5656 5652 5649 5645 5646 5645 5641 5637 5633 5628 5622 5617 5616 5607 5602 5609 5600 5593 5587 5575 5570 5568 5564 5552 5544 5533 5526 5518 5510 5504